Year,Month,Day,Hour,Minute,Value (Times are PST for insolation in W/m^2)
2018,07,04,00,00,0.00
2018,07,04,00,01,0.00
2018,07,04,00,02,0.00
2018,07,04,00,03,0.00
2018,07,04,00,04,0.00
2018,07,04,00,05,0.00
2018,07,04,00,06,0.00
2018,07,04,00,07,0.00
2018,07,04,00,08,0.00
2018,07,04,00,09,0.00
2018,07,04,00,10,0.00
2018,07,04,00,11,0.00
2018,07,04,00,12,0.00
2018,07,04,00,13,0.00
2018,07,04,00,14,0.00
2018,07,04,00,15,0.00
2018,07,04,00,16,0.00
2018,07,04,00,17,0.00
2018,07,04,00,18,0.00
2018,07,04,00,19,0.00
2018,07,04,00,20,0.00
2018,07,04,00,21,0.00
2018,07,04,00,22,0.00
2018,07,04,00,23,0.00
2018,07,04,00,24,0.00
2018,07,04,00,25,0.00
2018,07,04,00,26,0.00
2018,07,04,00,27,0.00
2018,07,04,00,28,0.00
2018,07,04,00,29,0.00
2018,07,04,00,30,0.00
2018,07,04,00,31,0.00
2018,07,04,00,32,0.00
2018,07,04,00,33,0.00
2018,07,04,00,34,0.00
2018,07,04,00,35,0.00
2018,07,04,00,36,0.00
2018,07,04,00,37,0.00
2018,07,04,00,38,0.00
2018,07,04,00,39,0.00
2018,07,04,00,40,0.00
2018,07,04,00,41,0.00
2018,07,04,00,42,0.00
2018,07,04,00,43,0.00
2018,07,04,00,44,0.00
2018,07,04,00,45,0.00
2018,07,04,00,46,0.00
2018,07,04,00,47,0.00
2018,07,04,00,48,0.00
2018,07,04,00,49,0.00
2018,07,04,00,50,0.00
2018,07,04,00,51,0.00
2018,07,04,00,52,0.00
2018,07,04,00,53,0.00
2018,07,04,00,54,0.00
2018,07,04,00,55,0.00
2018,07,04,00,56,0.00
2018,07,04,00,57,0.00
2018,07,04,00,58,0.00
2018,07,04,00,59,0.00
2018,07,04,01,00,0.00
2018,07,04,01,01,0.00
2018,07,04,01,02,0.00
2018,07,04,01,03,0.00
2018,07,04,01,04,0.00
2018,07,04,01,05,0.00
2018,07,04,01,06,0.00
2018,07,04,01,07,0.00
2018,07,04,01,08,0.00
2018,07,04,01,09,0.00
2018,07,04,01,10,0.00
2018,07,04,01,11,0.00
2018,07,04,01,12,0.00
2018,07,04,01,13,0.00
2018,07,04,01,14,0.00
2018,07,04,01,15,0.00
2018,07,04,01,16,0.00
2018,07,04,01,17,0.00
2018,07,04,01,18,0.00
2018,07,04,01,19,0.00
2018,07,04,01,20,0.00
2018,07,04,01,21,0.00
2018,07,04,01,22,0.00
2018,07,04,01,23,0.00
2018,07,04,01,24,0.00
2018,07,04,01,25,0.00
2018,07,04,01,26,0.00
2018,07,04,01,27,0.00
2018,07,04,01,28,0.00
2018,07,04,01,29,0.00
2018,07,04,01,30,0.00
2018,07,04,01,31,0.00
2018,07,04,01,32,0.00
2018,07,04,01,33,0.00
2018,07,04,01,34,0.00
2018,07,04,01,35,0.00
2018,07,04,01,36,0.00
2018,07,04,01,37,0.00
2018,07,04,01,38,0.00
2018,07,04,01,39,0.00
2018,07,04,01,40,0.00
2018,07,04,01,41,0.00
2018,07,04,01,42,0.00
2018,07,04,01,43,0.00
2018,07,04,01,44,0.00
2018,07,04,01,45,0.00
2018,07,04,01,46,0.00
2018,07,04,01,47,0.00
2018,07,04,01,48,0.00
2018,07,04,01,49,0.00
2018,07,04,01,50,0.00
2018,07,04,01,51,0.00
2018,07,04,01,52,0.00
2018,07,04,01,53,0.00
2018,07,04,01,54,0.00
2018,07,04,01,55,0.00
2018,07,04,01,56,0.00
2018,07,04,01,57,0.00
2018,07,04,01,58,0.00
2018,07,04,01,59,0.00
2018,07,04,02,00,0.00
2018,07,04,02,01,0.00
2018,07,04,02,02,0.00
2018,07,04,02,03,0.00
2018,07,04,02,04,0.00
2018,07,04,02,05,0.00
2018,07,04,02,06,0.00
2018,07,04,02,07,0.00
2018,07,04,02,08,0.00
2018,07,04,02,09,0.00
2018,07,04,02,10,0.00
2018,07,04,02,11,0.00
2018,07,04,02,12,0.00
2018,07,04,02,13,0.00
2018,07,04,02,14,0.00
2018,07,04,02,15,0.00
2018,07,04,02,16,0.00
2018,07,04,02,17,0.00
2018,07,04,02,18,0.00
2018,07,04,02,19,0.00
2018,07,04,02,20,0.00
2018,07,04,02,21,0.00
2018,07,04,02,22,0.00
2018,07,04,02,23,0.00
2018,07,04,02,24,0.00
2018,07,04,02,25,0.00
2018,07,04,02,26,0.00
2018,07,04,02,27,0.00
2018,07,04,02,28,0.00
2018,07,04,02,29,0.00
2018,07,04,02,30,0.00
2018,07,04,02,31,0.00
2018,07,04,02,32,0.00
2018,07,04,02,33,0.00
2018,07,04,02,34,0.00
2018,07,04,02,35,0.00
2018,07,04,02,36,0.00
2018,07,04,02,37,0.00
2018,07,04,02,38,0.00
2018,07,04,02,39,0.00
2018,07,04,02,40,0.00
2018,07,04,02,41,0.00
2018,07,04,02,42,0.00
2018,07,04,02,43,0.00
2018,07,04,02,44,0.00
2018,07,04,02,45,0.00
2018,07,04,02,46,0.00
2018,07,04,02,47,0.00
2018,07,04,02,48,0.00
2018,07,04,02,49,0.00
2018,07,04,02,50,0.00
2018,07,04,02,51,0.00
2018,07,04,02,52,0.00
2018,07,04,02,53,0.00
2018,07,04,02,54,0.00
2018,07,04,02,55,0.00
2018,07,04,02,56,0.00
2018,07,04,02,57,0.00
2018,07,04,02,58,0.00
2018,07,04,02,59,0.00
2018,07,04,03,00,0.00
2018,07,04,03,01,0.00
2018,07,04,03,02,0.00
2018,07,04,03,03,0.00
2018,07,04,03,04,0.00
2018,07,04,03,05,0.00
2018,07,04,03,06,0.00
2018,07,04,03,07,0.00
2018,07,04,03,08,0.00
2018,07,04,03,09,0.00
2018,07,04,03,10,0.00
2018,07,04,03,11,0.00
2018,07,04,03,12,0.00
2018,07,04,03,13,0.00
2018,07,04,03,14,0.00
2018,07,04,03,15,0.00
2018,07,04,03,16,0.00
2018,07,04,03,17,0.00
2018,07,04,03,18,0.00
2018,07,04,03,19,0.00
2018,07,04,03,20,0.00
2018,07,04,03,21,0.00
2018,07,04,03,22,0.00
2018,07,04,03,23,0.00
2018,07,04,03,24,0.00
2018,07,04,03,25,0.00
2018,07,04,03,26,0.00
2018,07,04,03,27,0.00
2018,07,04,03,28,0.00
2018,07,04,03,29,0.00
2018,07,04,03,30,0.00
2018,07,04,03,31,0.00
2018,07,04,03,32,0.00
2018,07,04,03,33,0.00
2018,07,04,03,34,0.00
2018,07,04,03,35,0.00
2018,07,04,03,36,0.00
2018,07,04,03,37,0.00
2018,07,04,03,38,0.00
2018,07,04,03,39,0.00
2018,07,04,03,40,0.00
2018,07,04,03,41,0.00
2018,07,04,03,42,0.00
2018,07,04,03,43,0.00
2018,07,04,03,44,0.00
2018,07,04,03,45,0.00
2018,07,04,03,46,0.00
2018,07,04,03,47,0.00
2018,07,04,03,48,0.00
2018,07,04,03,49,0.00
2018,07,04,03,50,0.00
2018,07,04,03,51,0.00
2018,07,04,03,52,0.00
2018,07,04,03,53,0.00
2018,07,04,03,54,0.00
2018,07,04,03,55,0.00
2018,07,04,03,56,0.00
2018,07,04,03,57,0.00
2018,07,04,03,58,0.00
2018,07,04,03,59,0.00
2018,07,04,04,00,0.00
2018,07,04,04,01,0.00
2018,07,04,04,02,0.00
2018,07,04,04,03,0.00
2018,07,04,04,04,0.00
2018,07,04,04,05,0.00
2018,07,04,04,06,0.00
2018,07,04,04,07,0.00
2018,07,04,04,08,0.00
2018,07,04,04,09,0.00
2018,07,04,04,10,0.00
2018,07,04,04,11,0.00
2018,07,04,04,12,0.00
2018,07,04,04,13,0.00
2018,07,04,04,14,0.00
2018,07,04,04,15,0.00
2018,07,04,04,16,0.00
2018,07,04,04,17,0.00
2018,07,04,04,18,0.00
2018,07,04,04,19,0.00
2018,07,04,04,20,0.00
2018,07,04,04,21,0.00
2018,07,04,04,22,0.00
2018,07,04,04,23,0.00
2018,07,04,04,24,0.00
2018,07,04,04,25,0.00
2018,07,04,04,26,0.00
2018,07,04,04,27,0.00
2018,07,04,04,28,0.00
2018,07,04,04,29,0.00
2018,07,04,04,30,0.00
2018,07,04,04,31,0.00
2018,07,04,04,32,0.00
2018,07,04,04,33,0.00
2018,07,04,04,34,0.00
2018,07,04,04,35,0.00
2018,07,04,04,36,0.00
2018,07,04,04,37,0.00
2018,07,04,04,38,0.00
2018,07,04,04,39,0.00
2018,07,04,04,40,0.00
2018,07,04,04,41,0.00
2018,07,04,04,42,0.00
2018,07,04,04,43,0.00
2018,07,04,04,44,0.00
2018,07,04,04,45,0.00
2018,07,04,04,46,0.00
2018,07,04,04,47,0.00
2018,07,04,04,48,0.00
2018,07,04,04,49,0.00
2018,07,04,04,50,0.00
2018,07,04,04,51,0.00
2018,07,04,04,52,0.00
2018,07,04,04,53,0.00
2018,07,04,04,54,0.00
2018,07,04,04,55,0.00
2018,07,04,04,56,0.00
2018,07,04,04,57,0.00
2018,07,04,04,58,0.00
2018,07,04,04,59,0.00
2018,07,04,05,00,0.00
2018,07,04,05,01,0.00
2018,07,04,05,02,0.00
2018,07,04,05,03,0.00
2018,07,04,05,04,0.00
2018,07,04,05,05,0.00
2018,07,04,05,06,0.00
2018,07,04,05,07,0.00
2018,07,04,05,08,0.00
2018,07,04,05,09,0.00
2018,07,04,05,10,0.00
2018,07,04,05,11,0.00
2018,07,04,05,12,0.00
2018,07,04,05,13,0.00
2018,07,04,05,14,0.00
2018,07,04,05,15,0.00
2018,07,04,05,16,0.00
2018,07,04,05,17,0.00
2018,07,04,05,18,0.00
2018,07,04,05,19,0.00
2018,07,04,05,20,0.00
2018,07,04,05,21,0.00
2018,07,04,05,22,0.00
2018,07,04,05,23,0.00
2018,07,04,05,24,0.00
2018,07,04,05,25,0.00
2018,07,04,05,26,0.00
2018,07,04,05,27,0.00
2018,07,04,05,28,0.90
2018,07,04,05,29,5.00
2018,07,04,05,30,5.00
2018,07,04,05,31,5.00
2018,07,04,05,32,5.00
2018,07,04,05,33,5.00
2018,07,04,05,34,5.00
2018,07,04,05,35,5.00
2018,07,04,05,36,5.00
2018,07,04,05,37,5.00
2018,07,04,05,38,6.20
2018,07,04,05,39,7.00
2018,07,04,05,40,7.00
2018,07,04,05,41,7.00
2018,07,04,05,42,7.40
2018,07,04,05,43,9.00
2018,07,04,05,44,9.00
2018,07,04,05,45,9.00
2018,07,04,05,46,9.00
2018,07,04,05,47,9.00
2018,07,04,05,48,9.10
2018,07,04,05,49,11.00
2018,07,04,05,50,11.00
2018,07,04,05,51,11.00
2018,07,04,05,52,11.00
2018,07,04,05,53,11.00
2018,07,04,05,54,11.00
2018,07,04,05,55,12.00
2018,07,04,05,56,12.00
2018,07,04,05,57,12.00
2018,07,04,05,58,12.90
2018,07,04,05,59,14.00
2018,07,04,06,00,14.00
2018,07,04,06,01,14.00
2018,07,04,06,02,15.90
2018,07,04,06,03,16.00
2018,07,04,06,04,16.00
2018,07,04,06,05,16.00
2018,07,04,06,06,16.00
2018,07,04,06,07,16.00
2018,07,04,06,08,17.60
2018,07,04,06,09,18.00
2018,07,04,06,10,18.00
2018,07,04,06,11,18.00
2018,07,04,06,12,18.40
2018,07,04,06,13,19.00
2018,07,04,06,14,19.00
2018,07,04,06,15,19.00
2018,07,04,06,16,19.00
2018,07,04,06,17,19.00
2018,07,04,06,18,19.60
2018,07,04,06,19,21.00
2018,07,04,06,20,21.00
2018,07,04,06,21,21.00
2018,07,04,06,22,21.00
2018,07,04,06,23,21.00
2018,07,04,06,24,21.00
2018,07,04,06,25,21.00
2018,07,04,06,26,21.00
2018,07,04,06,27,21.00
2018,07,04,06,28,21.00
2018,07,04,06,29,21.00
2018,07,04,06,30,21.00
2018,07,04,06,31,21.40
2018,07,04,06,32,23.00
2018,07,04,06,33,23.00
2018,07,04,06,34,23.00
2018,07,04,06,35,23.00
2018,07,04,06,36,23.00
2018,07,04,06,37,23.00
2018,07,04,06,38,23.00
2018,07,04,06,39,22.40
2018,07,04,06,40,21.00
2018,07,04,06,41,21.00
2018,07,04,06,42,21.00
2018,07,04,06,43,21.00
2018,07,04,06,44,22.90
2018,07,04,06,45,23.00
2018,07,04,06,46,23.00
2018,07,04,06,47,23.00
2018,07,04,06,48,23.00
2018,07,04,06,49,23.00
2018,07,04,06,50,23.00
2018,07,04,06,51,24.90
2018,07,04,06,52,25.00
2018,07,04,06,53,25.00
2018,07,04,06,54,25.00
2018,07,04,06,55,25.00
2018,07,04,06,56,25.00
2018,07,04,06,57,25.00
2018,07,04,06,58,25.10
2018,07,04,06,59,26.00
2018,07,04,07,00,26.00
2018,07,04,07,01,26.00
2018,07,04,07,02,26.00
2018,07,04,07,03,27.40
2018,07,04,07,04,26.40
2018,07,04,07,05,25.10
2018,07,04,07,06,26.00
2018,07,04,07,07,26.00
2018,07,04,07,08,26.90
2018,07,04,07,09,28.00
2018,07,04,07,10,31.50
2018,07,04,07,11,34.60
2018,07,04,07,12,35.10
2018,07,04,07,13,37.00
2018,07,04,07,14,38.60
2018,07,04,07,15,42.90
2018,07,04,07,16,45.10
2018,07,04,07,17,46.00
2018,07,04,07,18,46.80
2018,07,04,07,19,48.90
2018,07,04,07,20,49.00
2018,07,04,07,21,49.70
2018,07,04,07,22,51.00
2018,07,04,07,23,52.10
2018,07,04,07,24,53.70
2018,07,04,07,25,55.60
2018,07,04,07,26,56.00
2018,07,04,07,27,56.00
2018,07,04,07,28,56.00
2018,07,04,07,29,54.70
2018,07,04,07,30,53.60
2018,07,04,07,31,54.00
2018,07,04,07,32,53.20
2018,07,04,07,33,51.10
2018,07,04,07,34,51.40
2018,07,04,07,35,53.00
2018,07,04,07,36,53.50
2018,07,04,07,37,55.20
2018,07,04,07,38,56.00
2018,07,04,07,39,54.40
2018,07,04,07,40,56.00
2018,07,04,07,41,58.40
2018,07,04,07,42,60.60
2018,07,04,07,43,62.40
2018,07,04,07,44,63.00
2018,07,04,07,45,67.30
2018,07,04,07,46,67.30
2018,07,04,07,47,68.70
2018,07,04,07,48,67.00
2018,07,04,07,49,66.40
2018,07,04,07,50,65.90
2018,07,04,07,51,68.70
2018,07,04,07,52,69.30
2018,07,04,07,53,67.40
2018,07,04,07,54,69.60
2018,07,04,07,55,67.40
2018,07,04,07,56,69.30
2018,07,04,07,57,73.10
2018,07,04,07,58,71.30
2018,07,04,07,59,69.10
2018,07,04,08,00,75.10
2018,07,04,08,01,77.20
2018,07,04,08,02,79.40
2018,07,04,08,03,74.00
2018,07,04,08,04,71.80
2018,07,04,08,05,66.70
2018,07,04,08,06,67.90
2018,07,04,08,07,63.90
2018,07,04,08,08,58.40
2018,07,04,08,09,58.70
2018,07,04,08,10,63.00
2018,07,04,08,11,65.90
2018,07,04,08,12,68.70
2018,07,04,08,13,70.00
2018,07,04,08,14,69.10
2018,07,04,08,15,63.40
2018,07,04,08,16,62.00
2018,07,04,08,17,62.30
2018,07,04,08,18,64.80
2018,07,04,08,19,68.10
2018,07,04,08,20,61.10
2018,07,04,08,21,56.30
2018,07,04,08,22,54.10
2018,07,04,08,23,54.00
2018,07,04,08,24,54.00
2018,07,04,08,25,54.00
2018,07,04,08,26,54.00
2018,07,04,08,27,55.40
2018,07,04,08,28,57.60
2018,07,04,08,29,60.00
2018,07,04,08,30,62.20
2018,07,04,08,31,63.00
2018,07,04,08,32,62.60
2018,07,04,08,33,59.70
2018,07,04,08,34,60.90
2018,07,04,08,35,62.00
2018,07,04,08,36,65.60
2018,07,04,08,37,77.40
2018,07,04,08,38,80.20
2018,07,04,08,39,84.30
2018,07,04,08,40,88.80
2018,07,04,08,41,95.10
2018,07,04,08,42,101.10
2018,07,04,08,43,102.50
2018,07,04,08,44,109.40
2018,07,04,08,45,112.60
2018,07,04,08,46,116.00
2018,07,04,08,47,117.10
2018,07,04,08,48,126.60
2018,07,04,08,49,134.30
2018,07,04,08,50,125.10
2018,07,04,08,51,124.00
2018,07,04,08,52,137.60
2018,07,04,08,53,134.10
2018,07,04,08,54,123.40
2018,07,04,08,55,115.80
2018,07,04,08,56,108.20
2018,07,04,08,57,100.00
2018,07,04,08,58,103.40
2018,07,04,08,59,129.70
2018,07,04,09,00,132.70
2018,07,04,09,01,149.40
2018,07,04,09,02,165.00
2018,07,04,09,03,165.00
2018,07,04,09,04,407.90
2018,07,04,09,05,448.80
2018,07,04,09,06,459.00
2018,07,04,09,07,461.20
2018,07,04,09,08,468.00
2018,07,04,09,09,472.40
2018,07,04,09,10,474.60
2018,07,04,09,11,476.00
2018,07,04,09,12,477.10
2018,07,04,09,13,483.00
2018,07,04,09,14,487.30
2018,07,04,09,15,492.40
2018,07,04,09,16,498.90
2018,07,04,09,17,506.80
2018,07,04,09,18,513.60
2018,07,04,09,19,518.40
2018,07,04,09,20,504.60
2018,07,04,09,21,533.50
2018,07,04,09,22,541.00
2018,07,04,09,23,511.00
2018,07,04,09,24,500.60
2018,07,04,09,25,569.00
2018,07,04,09,26,589.60
2018,07,04,09,27,594.00
2018,07,04,09,28,600.10
2018,07,04,09,29,606.90
2018,07,04,09,30,614.80
2018,07,04,09,31,622.80
2018,07,04,09,32,631.30
2018,07,04,09,33,639.50
2018,07,04,09,34,646.20
2018,07,04,09,35,650.30
2018,07,04,09,36,653.10
2018,07,04,09,37,661.00
2018,07,04,09,38,673.00
2018,07,04,09,39,668.30
2018,07,04,09,40,668.00
2018,07,04,09,41,543.00
2018,07,04,09,42,279.00
2018,07,04,09,43,447.00
2018,07,04,09,44,579.30
2018,07,04,09,45,629.60
2018,07,04,09,46,643.00
2018,07,04,09,47,680.70
2018,07,04,09,48,682.70
2018,07,04,09,49,680.00
2018,07,04,09,50,683.60
2018,07,04,09,51,686.00
2018,07,04,09,52,688.60
2018,07,04,09,53,691.20
2018,07,04,09,54,696.40
2018,07,04,09,55,700.10
2018,07,04,09,56,708.00
2018,07,04,09,57,714.90
2018,07,04,09,58,721.90
2018,07,04,09,59,733.00
2018,07,04,10,00,735.00
2018,07,04,10,01,690.20
2018,07,04,10,02,526.00
2018,07,04,10,03,564.20
2018,07,04,10,04,645.10
2018,07,04,10,05,670.00
2018,07,04,10,06,464.60
2018,07,04,10,07,420.00
2018,07,04,10,08,404.80
2018,07,04,10,09,338.00
2018,07,04,10,10,452.70
2018,07,04,10,11,596.00
2018,07,04,10,12,626.00
2018,07,04,10,13,638.00
2018,07,04,10,14,743.90
2018,07,04,10,15,714.70
2018,07,04,10,16,578.00
2018,07,04,10,17,578.00
2018,07,04,10,18,694.60
2018,07,04,10,19,782.00
2018,07,04,10,20,782.00
2018,07,04,10,21,765.60
2018,07,04,10,22,765.00
2018,07,04,10,23,765.00
2018,07,04,10,24,765.00
2018,07,04,10,25,745.00
2018,07,04,10,26,763.60
2018,07,04,10,27,786.60
2018,07,04,10,28,809.20
2018,07,04,10,29,779.60
2018,07,04,10,30,696.70
2018,07,04,10,31,756.30
2018,07,04,10,32,759.00
2018,07,04,10,33,578.90
2018,07,04,10,34,503.00
2018,07,04,10,35,620.20
2018,07,04,10,36,573.00
2018,07,04,10,37,610.30
2018,07,04,10,38,697.40
2018,07,04,10,39,708.00
2018,07,04,10,40,708.00
2018,07,04,10,41,431.80
2018,07,04,10,42,420.10
2018,07,04,10,43,495.90
2018,07,04,10,44,812.00
2018,07,04,10,45,812.00
2018,07,04,10,46,812.00
2018,07,04,10,47,812.00
2018,07,04,10,48,662.10
2018,07,04,10,49,614.10
2018,07,04,10,50,593.50
2018,07,04,10,51,522.00
2018,07,04,10,52,531.90
2018,07,04,10,53,526.70
2018,07,04,10,54,581.30
2018,07,04,10,55,610.00
2018,07,04,10,56,610.00
2018,07,04,10,57,610.00
2018,07,04,10,58,610.00
2018,07,04,10,59,610.00
2018,07,04,11,00,610.00
2018,07,04,11,01,818.60
2018,07,04,11,02,900.30
2018,07,04,11,03,896.30
2018,07,04,11,04,896.00
2018,07,04,11,05,895.70
2018,07,04,11,06,879.40
2018,07,04,11,07,893.10
2018,07,04,11,08,883.70
2018,07,04,11,09,870.00
2018,07,04,11,10,870.00
2018,07,04,11,11,870.00
2018,07,04,11,12,870.00
2018,07,04,11,13,807.30
2018,07,04,11,14,742.10
2018,07,04,11,15,812.70
2018,07,04,11,16,873.70
2018,07,04,11,17,882.00
2018,07,04,11,18,882.00
2018,07,04,11,19,744.40
2018,07,04,11,20,435.90
2018,07,04,11,21,401.40
2018,07,04,11,22,420.50
2018,07,04,11,23,434.00
2018,07,04,11,24,625.30
2018,07,04,11,25,683.90
2018,07,04,11,26,877.00
2018,07,04,11,27,877.00
2018,07,04,11,28,877.00
2018,07,04,11,29,877.00
2018,07,04,11,30,635.00
2018,07,04,11,31,587.30
2018,07,04,11,32,688.40
2018,07,04,11,33,740.70
2018,07,04,11,34,808.70
2018,07,04,11,35,835.00
2018,07,04,11,36,851.00
2018,07,04,11,37,877.00
2018,07,04,11,38,897.90
2018,07,04,11,39,909.30
2018,07,04,11,40,925.90
2018,07,04,11,41,919.00
2018,07,04,11,42,915.00
2018,07,04,11,43,898.50
2018,07,04,11,44,889.00
2018,07,04,11,45,841.60
2018,07,04,11,46,231.10
2018,07,04,11,47,245.10
2018,07,04,11,48,258.00
2018,07,04,11,49,308.00
2018,07,04,11,50,308.00
2018,07,04,11,51,569.50
2018,07,04,11,52,557.10
2018,07,04,11,53,555.00
2018,07,04,11,54,564.50
2018,07,04,11,55,587.00
2018,07,04,11,56,587.00
2018,07,04,11,57,451.20
2018,07,04,11,58,340.60
2018,07,04,11,59,306.50
2018,07,04,12,00,324.60
2018,07,04,12,01,350.30
2018,07,04,12,02,401.30
2018,07,04,12,03,367.00
2018,07,04,12,04,363.40
2018,07,04,12,05,378.50
2018,07,04,12,06,370.80
2018,07,04,12,07,389.10
2018,07,04,12,08,410.70
2018,07,04,12,09,446.00
2018,07,04,12,10,489.40
2018,07,04,12,11,522.00
2018,07,04,12,12,706.80
2018,07,04,12,13,729.70
2018,07,04,12,14,703.30
2018,07,04,12,15,585.00
2018,07,04,12,16,585.00
2018,07,04,12,17,572.40
2018,07,04,12,18,509.50
2018,07,04,12,19,494.40
2018,07,04,12,20,460.70
2018,07,04,12,21,434.60
2018,07,04,12,22,415.00
2018,07,04,12,23,421.50
2018,07,04,12,24,437.30
2018,07,04,12,25,462.00
2018,07,04,12,26,482.40
2018,07,04,12,27,467.40
2018,07,04,12,28,445.10
2018,07,04,12,29,358.80
2018,07,04,12,30,382.60
2018,07,04,12,31,390.70
2018,07,04,12,32,410.80
2018,07,04,12,33,423.60
2018,07,04,12,34,417.30
2018,07,04,12,35,449.60
2018,07,04,12,36,387.40
2018,07,04,12,37,354.90
2018,07,04,12,38,381.10
2018,07,04,12,39,381.30
2018,07,04,12,40,345.90
2018,07,04,12,41,324.40
2018,07,04,12,42,334.10
2018,07,04,12,43,360.00
2018,07,04,12,44,384.40
2018,07,04,12,45,424.10
2018,07,04,12,46,425.40
2018,07,04,12,47,468.00
2018,07,04,12,48,422.30
2018,07,04,12,49,424.40
2018,07,04,12,50,448.00
2018,07,04,12,51,448.00
2018,07,04,12,52,448.00
2018,07,04,12,53,448.00
2018,07,04,12,54,459.40
2018,07,04,12,55,386.90
2018,07,04,12,56,418.00
2018,07,04,12,57,418.00
2018,07,04,12,58,418.00
2018,07,04,12,59,418.00
2018,07,04,13,00,418.00
2018,07,04,13,01,952.80
2018,07,04,13,02,1051.40
2018,07,04,13,03,831.00
2018,07,04,13,04,831.00
2018,07,04,13,05,831.00
2018,07,04,13,06,831.00
2018,07,04,13,07,831.00
2018,07,04,13,08,831.00
2018,07,04,13,09,831.00
2018,07,04,13,10,831.00
2018,07,04,13,11,863.80
2018,07,04,13,12,933.00
2018,07,04,13,13,1000.40
2018,07,04,13,14,1027.80
2018,07,04,13,15,1026.20
2018,07,04,13,16,1078.20
2018,07,04,13,17,1005.60
2018,07,04,13,18,979.10
2018,07,04,13,19,945.30
2018,07,04,13,20,900.60
2018,07,04,13,21,874.90
2018,07,04,13,22,840.30
2018,07,04,13,23,833.00
2018,07,04,13,24,804.70
2018,07,04,13,25,673.70
2018,07,04,13,26,619.00
2018,07,04,13,27,783.10
2018,07,04,13,28,896.00
2018,07,04,13,29,720.20
2018,07,04,13,30,682.00
2018,07,04,13,31,750.10
2018,07,04,13,32,982.00
2018,07,04,13,33,944.10
2018,07,04,13,34,942.00
2018,07,04,13,35,928.40
2018,07,04,13,36,980.00
2018,07,04,13,37,1013.10
2018,07,04,13,38,997.40
2018,07,04,13,39,979.00
2018,07,04,13,40,947.00
2018,07,04,13,41,947.00
2018,07,04,13,42,947.00
2018,07,04,13,43,947.00
2018,07,04,13,44,546.40
2018,07,04,13,45,531.00
2018,07,04,13,46,457.40
2018,07,04,13,47,303.80
2018,07,04,13,48,303.70
2018,07,04,13,49,316.10
2018,07,04,13,50,352.40
2018,07,04,13,51,453.50
2018,07,04,13,52,515.30
2018,07,04,13,53,764.60
2018,07,04,13,54,749.00
2018,07,04,13,55,619.30
2018,07,04,13,56,522.00
2018,07,04,13,57,403.00
2018,07,04,13,58,363.30
2018,07,04,13,59,394.60
2018,07,04,14,00,417.90
2018,07,04,14,01,439.60
2018,07,04,14,02,495.00
2018,07,04,14,03,569.10
2018,07,04,14,04,581.60
2018,07,04,14,05,605.00
2018,07,04,14,06,572.10
2018,07,04,14,07,448.00
2018,07,04,14,08,448.00
2018,07,04,14,09,448.00
2018,07,04,14,10,448.00
2018,07,04,14,11,448.00
2018,07,04,14,12,493.50
2018,07,04,14,13,1051.30
2018,07,04,14,14,1008.50
2018,07,04,14,15,1004.10
2018,07,04,14,16,988.00
2018,07,04,14,17,954.80
2018,07,04,14,18,987.50
2018,07,04,14,19,998.00
2018,07,04,14,20,998.00
2018,07,04,14,21,895.80
2018,07,04,14,22,656.00
2018,07,04,14,23,569.40
2018,07,04,14,24,527.00
2018,07,04,14,25,696.20
2018,07,04,14,26,759.10
2018,07,04,14,27,744.70
2018,07,04,14,28,745.30
2018,07,04,14,29,780.20
2018,07,04,14,30,773.00
2018,07,04,14,31,859.60
2018,07,04,14,32,845.90
2018,07,04,14,33,821.50
2018,07,04,14,34,821.00
2018,07,04,14,35,860.70
2018,07,04,14,36,911.70
2018,07,04,14,37,895.10
2018,07,04,14,38,968.30
2018,07,04,14,39,1021.30
2018,07,04,14,40,1028.90
2018,07,04,14,41,978.00
2018,07,04,14,42,902.60
2018,07,04,14,43,862.60
2018,07,04,14,44,895.70
2018,07,04,14,45,912.00
2018,07,04,14,46,981.80
2018,07,04,14,47,968.40
2018,07,04,14,48,1033.60
2018,07,04,14,49,1029.80
2018,07,04,14,50,991.20
2018,07,04,14,51,913.00
2018,07,04,14,52,886.00
2018,07,04,14,53,1050.30
2018,07,04,14,54,1086.00
2018,07,04,14,55,1004.00
2018,07,04,14,56,627.90
2018,07,04,14,57,596.00
2018,07,04,14,58,523.10
2018,07,04,14,59,473.00
2018,07,04,15,00,473.00
2018,07,04,15,01,473.00
2018,07,04,15,02,484.60
2018,07,04,15,03,522.00
2018,07,04,15,04,543.10
2018,07,04,15,05,590.00
2018,07,04,15,06,553.10
2018,07,04,15,07,590.60
2018,07,04,15,08,603.00
2018,07,04,15,09,625.80
2018,07,04,15,10,711.90
2018,07,04,15,11,682.00
2018,07,04,15,12,682.00
2018,07,04,15,13,682.00
2018,07,04,15,14,496.30
2018,07,04,15,15,541.40
2018,07,04,15,16,628.20
2018,07,04,15,17,569.90
2018,07,04,15,18,498.60
2018,07,04,15,19,439.40
2018,07,04,15,20,481.50
2018,07,04,15,21,513.00
2018,07,04,15,22,669.90
2018,07,04,15,23,618.80
2018,07,04,15,24,384.00
2018,07,04,15,25,390.00
2018,07,04,15,26,404.90
2018,07,04,15,27,380.80
2018,07,04,15,28,445.80
2018,07,04,15,29,460.60
2018,07,04,15,30,416.10
2018,07,04,15,31,414.80
2018,07,04,15,32,458.80
2018,07,04,15,33,519.30
2018,07,04,15,34,538.00
2018,07,04,15,35,538.00
2018,07,04,15,36,718.90
2018,07,04,15,37,689.30
2018,07,04,15,38,622.70
2018,07,04,15,39,559.00
2018,07,04,15,40,547.00
2018,07,04,15,41,593.40
2018,07,04,15,42,539.90
2018,07,04,15,43,460.00
2018,07,04,15,44,497.10
2018,07,04,15,45,464.90
2018,07,04,15,46,440.90
2018,07,04,15,47,413.90
2018,07,04,15,48,374.00
2018,07,04,15,49,362.00
2018,07,04,15,50,375.50
2018,07,04,15,51,376.00
2018,07,04,15,52,373.70
2018,07,04,15,53,368.10
2018,07,04,15,54,378.70
2018,07,04,15,55,394.10
2018,07,04,15,56,381.40
2018,07,04,15,57,309.90
2018,07,04,15,58,299.40
2018,07,04,15,59,293.70
2018,07,04,16,00,287.40
2018,07,04,16,01,317.70
2018,07,04,16,02,340.80
2018,07,04,16,03,314.90
2018,07,04,16,04,328.30
2018,07,04,16,05,366.60
2018,07,04,16,06,393.10
2018,07,04,16,07,420.90
2018,07,04,16,08,419.70
2018,07,04,16,09,379.10
2018,07,04,16,10,344.20
2018,07,04,16,11,308.50
2018,07,04,16,12,260.20
2018,07,04,16,13,238.80
2018,07,04,16,14,225.60
2018,07,04,16,15,214.90
2018,07,04,16,16,206.10
2018,07,04,16,17,199.90
2018,07,04,16,18,194.90
2018,07,04,16,19,191.60
2018,07,04,16,20,189.40
2018,07,04,16,21,188.90
2018,07,04,16,22,190.00
2018,07,04,16,23,191.40
2018,07,04,16,24,192.00
2018,07,04,16,25,192.90
2018,07,04,16,26,192.00
2018,07,04,16,27,191.40
2018,07,04,16,28,189.10
2018,07,04,16,29,188.00
2018,07,04,16,30,186.60
2018,07,04,16,31,186.00
2018,07,04,16,32,186.00
2018,07,04,16,33,186.00
2018,07,04,16,34,186.00
2018,07,04,16,35,186.00
2018,07,04,16,36,188.20
2018,07,04,16,37,192.00
2018,07,04,16,38,198.80
2018,07,04,16,39,209.50
2018,07,04,16,40,220.00
2018,07,04,16,41,227.70
2018,07,04,16,42,245.10
2018,07,04,16,43,248.00
2018,07,04,16,44,246.60
2018,07,04,16,45,243.50
2018,07,04,16,46,238.90
2018,07,04,16,47,235.30
2018,07,04,16,48,231.40
2018,07,04,16,49,230.00
2018,07,04,16,50,232.30
2018,07,04,16,51,235.40
2018,07,04,16,52,234.30
2018,07,04,16,53,231.90
2018,07,04,16,54,227.90
2018,07,04,16,55,221.40
2018,07,04,16,56,215.80
2018,07,04,16,57,209.60
2018,07,04,16,58,203.50
2018,07,04,16,59,197.90
2018,07,04,17,00,192.10
2018,07,04,17,01,187.60
2018,07,04,17,02,185.70
2018,07,04,17,03,185.00
2018,07,04,17,04,183.80
2018,07,04,17,05,183.00
2018,07,04,17,06,183.00
2018,07,04,17,07,186.00
2018,07,04,17,08,188.40
2018,07,04,17,09,190.00
2018,07,04,17,10,190.00
2018,07,04,17,11,190.00